Dewpoint
61 69 70 73 73 72 72 72 71 71 72 73 73 73 73 74 73 73 73 73 73 73 72 72 72 72 72 73 73 72 72 71 71 71 70 70 69 69 68 68 68 68 68 68 69 70 69 69 70 70 70 69 69 69 69 70 70 70 70 69 69 69 69 69 68 68 67 67 68 68 68 68 68 68 68 67 67 67 68 67 69 60 63 65 66
62 68 71 72 73 72 72 71 71 71 72 73 72 73 73 73 73 73 73 73 73 73 72 72 72 72 73 73 72 72 71 71 70 69 68 68 68 68 68 67 66 67 68 68 69 69 70 69 69 70 69 69 68 68 69 69 70 70 70 70 69 68 69 68 68 68 67 67 67 67 68 68 68 68 68 68 67 67 67 68 68 62 63 66 65
66 69 71 71 73 72 71 71 71 71 72 73 73 73 73 73 73 73 73 73 73 73 72 72 72 73 73 72 72 71 70 70 70 69 68 68 67 67 67 66 67 68 69 70 69 68 69 69 69 69 68 68 68 68 68 68 68 68 68 68 68 68 68 68 68 68 68 67 68 68 69 69 68 68 68 67 67 67 67 67 67 66 64 65 65
67 69 70 72 72 72 72 71 71 71 71 72 73 73 72 72 73 73 73 73 73 72 72 72 73 73 72 72 72 71 70 70 69 69 68 68 67 67 67 67 68 69 70 70 69 68 68 69 68 68 68 68 68 69 68 68 69 69 69 69 68 68 68 68 68 67 67 67 67 69 68 63 65 67 68 67 66 67 67 67 66 66 66 65 65
67 68 70 71 71 72 72 71 71 71 71 71 72 73 73 73 73 73 73 73 73 72 72 73 73 73 72 72 72 71 70 69 68 68 68 68 68 68 67 67 69 70 70 70 69 68 67 67 68 68 68 68 69 69 69 69 69 69 69 69 69 69 68 67 67 67 67 68 68 69 66 59 63 67 68 68 67 66 66 66 65 65 65 65 65
66 68 69 70 69 71 72 71 71 71 71 71 72 72 73 73 73 73 73 73 73 73 73 73 73 73 72 71 71 70 70 69 68 68 67 67 68 67 67 67 67 68 68 69 68 67 67 66 67 68 68 68 69 69 69 68 68 68 69 69 69 69 69 68 68 67 67 68 70 68 53 55 56 62 68 68 67 67 67 66 65 65 65 65 66
66 67 68 68 68 70 72 72 71 71 71 71 72 72 72 73 73 73 73 73 73 73 73 73 73 72 72 71 71 71 71 70 70 69 69 68 67 67 68 68 68 67 68 68 68 67 66 67 67 68 67 68 68 68 68 68 68 68 68 68 69 68 69 69 69 70 69 68 67 55 54 53 53 57 68 68 67 67 67 67 66 65 65 65 66
65 65 66 66 68 72 72 71 71 71 71 71 71 72 72 73 73 73 73 73 73 73 73 73 73 72 71 71 71 71 71 70 70 69 69 69 68 68 67 67 67 68 67 68 67 67 67 67 68 67 68 68 68 68 69 69 68 68 67 69 68 69 69 68 69 70 70 69 55 57 56 56 56 57 68 67 67 67 67 66 66 66 65 66 66
62 63 65 67 70 72 72 72 71 71 71 71 71 72 72 73 73 73 73 73 73 73 73 73 73 72 71 71 71 71 70 70 69 69 69 71 70 70 70 70 69 68 68 67 67 67 67 67 67 68 68 69 68 68 68 68 67 67 68 69 70 69 69 70 69 70 68 62 54 54 59 57 56 59 67 67 67 68 67 67 67 67 66 65 65
61 63 66 68 70 72 72 72 72 71 71 71 71 72 72 73 73 73 73 73 73 73 73 73 73 72 71 71 71 71 71 70 70 70 70 70 69 69 68 68 68 68 68 68 67 66 67 68 68 68 69 69 69 68 68 68 68 69 69 70 70 71 71 71 71 71 68 56 54 57 60 67 54 54 66 66 68 68 67 66 66 67 66 65 65
62 64 66 67 70 72 72 72 71 71 71 71 71 72 73 73 73 73 73 73 73 73 73 73 73 72 72 72 72 72 72 72 71 70 69 69 68 68 69 68 68 67 68 67 67 66 67 68 68 68 68 69 69 69 68 68 69 69 70 70 71 70 70 71 71 67 60 54 55 61 61 67 58 59 67 67 68 67 66 66 66 65 65 66 65
62 66 67 70 72 72 72 72 71 71 71 71 72 73 73 73 73 73 73 73 73 73 73 73 73 73 72 72 72 72 72 72 71 69 69 69 69 68 68 68 68 68 67 67 66 67 67 68 69 68 69 69 69 68 68 67 68 69 70 71 71 71 71 71 67 66 57 53 53 60 54 54 56 63 68 68 67 67 67 66 66 65 65 66 66
63 64 70 71 70 72 72 72 71 71 71 71 72 73 73 73 73 72 73 73 73 73 73 73 73 72 72 72 72 72 72 72 70 69 69 69 69 68 68 68 68 68 68 68 67 68 68 68 68 69 69 69 69 68 68 69 69 69 71 71 71 71 71 71 66 63 54 54 56 58 57 60 61 69 67 68 67 67 67 67 67 66 66 66 65
61 65 70 70 70 72 72 72 72 72 71 72 73 73 73 73 72 73 73 73 73 73 73 73 72 72 72 72 72 71 71 71 71 70 70 70 69 68 68 68 68 68 68 68 68 68 68 68 68 69 69 68 67 68 68 68 68 69 69 71 71 71 71 70 69 58 53 53 59 49 58 63 61 68 65 67 68 67 67 67 67 66 65 65 65
63 66 67 69 70 70 72 72 72 72 73 73 73 73 73 73 73 73 73 73 73 73 72 72 72 72 72 72 72 72 71 71 70 70 70 69 69 68 68 68 68 68 68 67 67 68 68 68 68 69 70 69 69 69 70 69 68 69 69 70 71 71 71 64 62 53 52 51 55 51 52 61 69 68 66 68 68 68 67 67 66 66 66 66 66
66 68 66 70 68 69 70 72 72 72 73 73 73 73 73 73 73 73 73 73 72 72 72 72 72 72 72 72 71 70 70 69 69 69 69 69 68 68 67 67 67 68 67 67 67 68 68 69 69 69 70 70 69 68 69 69 68 69 70 70 70 71 71 71 61 53 53 52 48 54 57 63 70 68 67 68 68 68 68 67 67 67 67 66 66
67 66 65 65 68 67 67 68 70 72 73 73 73 73 73 73 73 73 73 72 72 72 72 72 72 72 71 71 71 71 70 70 69 69 68 68 68 68 67 67 67 67 68 68 68 68 69 69 69 69 69 70 70 69 69 70 70 70 70 70 71 71 71 72 60 54 52 51 51 52 58 63 69 68 66 67 67 69 69 68 68 68 67 67 67
66 63 62 64 65 64 67 67 69 70 71 73 73 73 73 73 73 73 73 72 72 72 72 71 71 71 71 70 70 69 69 68 68 68 67 67 68 67 67 67 67 67 67 68 68 68 69 69 69 69 69 70 70 70 70 69 70 70 70 70 70 71 72 72 64 59 54 55 53 53 64 70 70 69 67 66 67 68 69 69 68 68 67 67 67
63 63 62 63 62 63 64 68 68 66 70 70 71 74 73 73 73 73 72 72 72 72 71 71 71 71 70 69 68 68 67 68 67 66 66 67 66 67 67 67 67 67 67 68 68 68 69 69 70 69 69 69 69 68 68 70 69 70 71 71 72 72 72 71 65 54 51 56 56 62 63 70 71 68 67 67 67 67 68 69 68 68 67 67 67
63 63 63 62 61 61 63 67 67 67 68 69 69 72 73 73 73 72 72 72 72 72 71 71 71 70 69 68 68 67 67 66 67 66 66 66 67 66 67 67 67 67 68 67 68 69 69 69 69 70 69 67 68 68 68 69 69 69 70 71 71 71 69 67 57 50 52 53 60 64 70 70 69 68 67 67 67 68 68 69 68 67 67 67 67
64 63 63 62 61 60 65 66 66 66 68 68 68 71 72 72 72 72 72 72 72 72 71 70 69 68 67 67 67 67 67 64 66 65 66 66 67 67 67 68 68 68 68 68 68 68 68 68 68 68 69 68 67 68 68 68 69 69 70 70 71 69 66 61 57 55 54 54 63 63 71 68 69 68 68 68 68 68 68 68 68 68 67 67 67
62 62 62 62 61 63 65 67 66 67 66 66 67 69 71 71 72 72 72 72 72 71 71 68 67 67 67 68 69 64 65 65 65 63 65 67 67 67 67 68 68 68 69 68 68 69 68 67 68 68 67 68 68 64 63 68 69 70 70 70 69 63 63 59 58 56 56 62 65 68 69 69 69 69 69 69 69 68 68 68 68 68 68 68 69
60 61 63 64 65 64 65 65 66 67 66 66 66 67 70 70 70 70 71 71 71 71 68 67 66 64 63 63 64 65 64 62 65 64 64 65 68 67 67 68 68 68 68 69 69 69 69 68 67 68 68 68 64 59 58 58 61 70 70 69 63 62 59 58 60 61 58 64 64 70 69 69 70 70 69 69 69 69 68 68 68 68 68 69 69
62 61 63 64 64 64 66 67 67 67 64 66 67 67 69 69 68 70 70 70 70 69 68 66 65 65 63 65 65 65 64 65 65 67 67 66 67 68 68 68 68 69 68 68 68 67 67 68 67 68 69 64 59 56 54 56 61 63 65 62 59 57 59 60 57 60 60 64 64 70 70 69 70 70 69 69 69 69 68 69 69 69 68 68 68
64 63 64 65 64 65 65 66 67 67 65 66 66 65 68 67 67 68 70 70 68 68 67 66 66 65 64 64 62 65 64 60 63 63 62 59 59 63 64 64 63 61 68 63 58 54 63 58 61 66 61 60 59 57 53 53 57 55 57 58 59 60 61 62 58 59 65 67 69 70 70 70 69 69 69 69 69 69 68 68 69 69 69 68 68
64 63 63 65 65 66 66 66 67 66 63 64 65 65 67 65 67 69 68 67 69 69 66 67 66 66 62 62 64 65 65 64 65 65 63 58 55 53 56 59 58 58 60 63 60 59 61 62 59 59 61 57 55 55 56 56 55 57 58 61 61 63 62 62 60 64 68 68 69 70 70 70 70 70 70 69 69 69 69 69 68 68 68 68 67
63 63 65 65 66 67 67 66 65 65 65 64 64 64 65 66 67 69 69 68 70 66 65 65 66 65 65 65 64 65 64 62 62 63 61 61 59 57 58 59 61 57 57 61 60 60 59 57 54 57 56 55 55 58 59 60 64 59 60 59 61 61 64 61 61 63 68 68 69 70 70 69 69 69 69 69 69 69 69 68 68 68 67 67 67
63 64 65 65 66 66 66 66 65 63 64 65 64 65 64 66 69 69 69 68 68 66 65 65 67 64 66 66 67 65 65 65 65 63 62 62 61 62 61 58 61 58 58 60 55 57 57 58 61 60 59 61 60 63 61 60 62 64 59 61 61 63 65 64 64 65 67 67 68 69 68 68 69 69 69 69 69 69 68 69 68 68 68 67 67
63 65 65 65 65 66 66 65 64 63 64 64 64 64 64 66 68 68 69 69 67 65 65 67 67 65 67 67 67 67 65 65 66 66 65 63 62 63 59 61 62 61 61 62 64 64 64 64 65 64 64 63 62 64 61 60 63 63 60 59 61 62 64 64 64 66 67 67 68 67 68 68 67 67 68 69 69 69 69 69 69 69 69 68 68
64 64 65 65 65 66 65 65 64 64 64 65 65 65 64 65 67 67 70 68 65 66 66 65 65 64 65 66 67 67 66 65 65 66 65 67 66 67 67 65 65 65 66 65 66 65 66 66 65 65 61 62 62 62 59 60 58 61 60 61 61 60 63 63 64 64 67 67 68 67 67 66 66 65 65 66 67 68 68 68 68 68 68 68 68
65 65 64 64 65 65 65 64 62 65 64 64 65 65 66 66 66 67 69 66 65 67 66 65 64 65 65 67 67 67 68 66 67 66 67 67 67 69 68 68 67 65 66 66 67 67 67 66 66 65 64 62 59 59 59 60 59 56 60 60 61 61 62 65 66 65 66 67 66 65 64 65 64 64 63 62 63 64 66 66 66 66 67 67 67
65 65 63 65 65 65 65 64 63 65 66 66 66 66 65 65 67 67 67 66 68 66 64 65 65 65 67 67 67 67 67 67 69 68 68 67 67 67 68 68 67 68 72 67 70 67 66 65 65 65 63 63 63 61 62 60 59 57 56 60 62 62 62 64 64 64 64 66 67 65 63 61 63 63 61 60 59 60 61 62 63 64 64 65 65
64 65 64 65 65 65 66 65 63 66 66 65 65 66 66 65 66 66 67 67 67 65 64 66 68 69 70 71 69 67 67 67 70 69 68 67 68 69 67 68 70 72 68 69 68 66 67 66 66 64 64 64 63 62 56 60 60 60 61 61 63 63 63 62 63 62 62 61 61 62 64 61 59 61 60 59 59 57 57 57 57 59 61 62 63
64 63 65 65 65 64 65 66 64 65 67 65 66 65 66 66 67 66 67 67 65 63 65 68 69 68 70 70 70 66 66 68 68 70 72 67 68 71 69 71 71 70 73 71 70 66 65 65 65 64 62 62 60 60 58 59 57 59 62 63 64 64 61 61 60 62 61 60 60 61 59 60 60 59 57 59 57 56 56 56 55 55 57 59 60
64 64 64 66 65 64 65 65 65 67 67 66 66 66 67 66 66 66 67 68 66 65 68 69 68 67 68 68 69 68 66 67 68 69 69 71 70 71 68 70 70 68 71 71 70 66 66 65 63 64 62 60 57 58 58 60 60 60 64 65 63 61 61 60 60 59 58 59 59 59 60 60 60 60 59 56 56 54 53 54 55 54 54 56 58
66 66 65 66 65 64 64 65 65 66 67 67 67 67 68 67 66 66 67 67 65 68 67 68 67 66 67 67 69 69 68 67 67 68 71 69 69 68 70 69 66 69 69 70 68 65 66 66 65 64 61 58 57 58 59 59 62 63 64 64 63 61 60 59 59 59 58 58 58 58 59 59 59 58 56 52 52 53 51 50 54 53 52 53 55
67 67 66 66 65 64 64 65 66 65 67 67 67 67 68 67 67 67 67 68 67 67 67 68 67 66 68 65 67 70 69 69 69 68 70 69 69 68 69 68 69 70 71 70 70 66 67 66 66 65 65 61 56 56 59 61 62 63 63 62 61 62 61 59 59 58 58 57 56 55 56 55 57 57 54 49 49 45 47 47 49 52 52 52 52
67 67 66 66 65 64 64 65 65 66 67 67 67 67 68 67 67 67 67 67 68 68 69 68 67 69 69 68 67 69 70 68 68 69 70 68 69 68 69 68 69 69 69 68 68 67 67 66 65 65 64 63 59 60 59 60 61 63 62 61 62 59 59 59 59 58 55 51 51 51 53 54 53 52 48 49 46 45 44 45 46 55 51 50 50
67 66 66 66 65 65 64 65 63 66 66 67 68 68 68 67 67 68 68 68 68 68 68 67 70 70 71 69 67 68 68 68 69 69 68 69 68 68 68 68 70 69 68 65 66 65 66 65 64 62 63 61 61 61 60 60 61 62 61 61 62 62 60 58 58 55 51 49 47 47 49 51 52 48 48 47 45 46 46 46 43 43 44 47 46
67 67 66 66 66 66 65 64 64 66 66 66 67 64 66 65 65 67 67 67 67 68 68 69 69 68 68 68 68 69 67 69 68 68 69 69 69 69 69 69 70 68 67 66 65 63 64 64 64 62 61 59 61 61 60 61 61 63 62 62 61 61 59 57 55 53 50 47 47 47 49 48 50 50 48 45 45 45 45 45 45 43 44 45 46
67 66 66 66 66 65 65 64 64 66 65 65 65 64 64 66 68 68 66 67 66 68 68 69 68 68 68 68 69 69 70 69 68 68 70 69 69 70 69 68 68 66 66 65 65 64 64 63 63 62 60 60 61 60 62 63 61 61 61 61 60 60 58 56 53 51 49 47 45 47 48 48 46 44 47 48 44 44 44 45 44 45 45 45 45
66 66 66 66 66 66 66 65 65 65 66 66 65 65 65 65 68 67 67 65 64 66 66 67 68 68 69 68 68 67 69 69 68 69 70 69 68 69 68 70 65 65 64 64 63 63 63 63 62 63 60 58 59 60 62 62 59 59 59 59 58 59 58 53 49 48 49 48 48 49 49 49 47 46 46 45 46 44 43 45 46 45 46 46 45
66 66 66 66 66 66 66 66 66 65 64 65 66 65 66 68 68 66 65 64 67 67 67 69 68 69 68 67 67 68 67 67 68 68 69 68 67 66 66 67 65 64 64 62 62 62 62 61 61 61 60 59 57 58 60 61 59 58 60 59 57 57 55 52 50 48 48 48 48 49 50 49 47 46 44 44 44 45 43 43 45 45 46 46 44
66 66 67 66 66 66 66 66 66 66 65 66 66 66 66 67 68 66 68 68 68 68 69 68 68 67 67 67 67 67 66 66 66 67 68 67 66 65 65 64 63 63 62 61 61 61 61 61 61 59 61 56 55 56 58 57 57 58 54 55 57 56 54 52 49 47 47 48 47 48 48 47 46 45 45 43 42 43 44 42 43 44 45 46 44
66 66 66 66 66 67 67 66 66 66 66 67 66 66 66 66 69 68 68 67 66 67 66 66 66 66 66 66 66 66 66 66 66 65 65 65 65 64 63 63 62 62 62 60 60 59 58 59 60 61 60 58 54 54 53 55 52 53 53 57 51 51 53 53 48 44 45 44 46 46 46 46 43 42 43 41 43 43 42 42 44 45 45 44 43
66 66 67 67 67 67 66 66 66 66 66 67 66 65 65 65 66 65 65 64 64 64 65 63 64 65 65 66 66 66 66 65 65 64 64 64 64 64 63 62 61 61 61 59 59 58 58 58 59 59 59 60 57 53 50 51 51 49 49 50 52 51 51 53 51 44 42 43 43 39 43 44 45 42 42 39 40 41 42 42 43 44 44 43 42
66 67 67 67 67 67 66 66 66 66 67 67 66 65 65 66 66 65 65 66 65 65 65 66 65 65 64 65 65 66 64 65 64 63 63 63 63 62 62 61 60 60 59 59 58 57 56 57 57 57 57 58 58 54 55 51 48 47 46 47 48 50 52 51 48 45 43 45 43 41 39 38 42 42 39 34 38 40 41 42 40 38 41 42 41
66 66 67 67 68 67 67 67 67 67 67 68 66 65 66 67 67 66 65 66 66 65 66 66 65 64 64 64 65 64 63 62 63 62 62 62 62 61 60 60 58 58 57 58 58 57 56 55 56 56 55 54 54 52 50 45 40 42 48 48 45 45 47 50 48 45 42 47 43 43 43 45 44 43 43 41 40 40 42 42 36 38 38 37 38
66 66 66 66 66 67 68 67 67 66 66 66 66 66 66 66 66 66 65 65 66 65 64 64 63 64 64 64 64 63 63 62 61 61 60 59 60 59 59 58 57 56 55 55 55 55 56 55 54 53 53 52 52 52 52 50 49 47 46 47 45 42 41 45 44 43 40 40 35 37 44 48 47 43 45 44 43 41 39 37 37 37 39 38 36
66 66 64 64 65 65 66 66 66 65 66 66 66 66 67 67 67 66 65 64 64 63 63 63 63 63 62 62 62 61 61 61 60 59 59 58 58 58 57 57 56 55 54 53 53 52 53 53 52 51 51 51 51 51 50 49 49 48 48 48 46 45 44 43 43 43 41 41 33 28 36 42 44 43 43 42 43 37 33 36 37 34 34 35 34
66 65 63 64 65 65 65 66 66 65 66 66 66 66 66 67 66 66 65 65 64 63 62 62 61 62 61 60 61 62 63 60 60 59 59 58 58 57 56 56 56 54 52 52 52 50 50 49 50 51 51 51 49 49 49 49 48 47 47 46 46 45 44 43 44 43 43 43 39 35 39 36 32 41 42 40 39 29 27 33 32 34 32 33 33